| time (UTC) | temp F | wind direction | speed MPH | gust MPH | rain 1hr in | rain 24hr in | rain mn in | humidity % | barometer mb |
| 20260504223006 | 55 | 275 | 9.0 | 26.0 | 0.00 | 0.00 | 0.00 | 40 | 1003.2 |
| 20260504221502 | 56 | 273 | 10.0 | 25.0 | 0.00 | 0.00 | 0.00 | 39 | 1002.7 |
| 20260504220002 | 57 | 334 | 13.0 | 31.0 | 0.00 | 0.00 | 0.00 | 39 | 1002.5 |
| 20260504214559 | 56 | 301 | 12.0 | 25.0 | 0.00 | 0.00 | 0.00 | 40 | 1002.1 |
| 20260504213059 | 57 | 309 | 11.0 | 26.0 | 0.00 | 0.00 | 0.00 | 39 | 1002.1 |
| 20260504211556 | 58 | 328 | 12.0 | 26.0 | 0.00 | 0.00 | 0.00 | 38 | 1001.8 |
| 20260504210107 | 60 | 287 | 6.0 | 20.0 | 0.00 | 0.00 | 0.00 | 37 | 1001.7 |
| 20260504204605 | 58 | 304 | 9.0 | 23.0 | 0.00 | 0.00 | 0.00 | 38 | 1001.5 |
| 20260504203106 | 60 | 337 | 12.0 | 23.0 | 0.00 | 0.00 | 0.00 | 37 | 1001.5 |
| 20260504201555 | 59 | 302 | 14.0 | 26.0 | 0.00 | 0.00 | 0.00 | 38 | 1001.3 |
| 20260504200053 | 59 | 284 | 9.0 | 22.0 | 0.00 | 0.00 | 0.00 | 40 | 1001.1 |
| 20260504194601 | 59 | 297 | 13.0 | 26.0 | 0.00 | 0.00 | 0.00 | 38 | 1001.2 |
| 20260504193052 | 61 | 327 | 8.0 | 21.0 | 0.00 | 0.00 | 0.00 | 38 | 1000.9 |
| 20260504191551 | 60 | 329 | 9.0 | 25.0 | 0.00 | 0.00 | 0.00 | 40 | 1000.5 |
| 20260504190116 | 60 | 338 | 10.0 | 25.0 | 0.00 | 0.00 | 0.00 | 38 | 1000.6 |
| 20260504184551 | 59 | 294 | 13.0 | 25.0 | 0.00 | 0.00 | 0.00 | 37 | 1000.4 |
| 20260504183051 | 60 | 292 | 10.0 | 23.0 | 0.00 | 0.00 | 0.00 | 35 | 1000.1 |
| 20260504181550 | 59 | 292 | 16.0 | 26.0 | 0.00 | 0.00 | 0.00 | 35 | 1000.1 |
| 20260504180049 | 60 | 271 | 5.0 | 23.0 | 0.00 | 0.00 | 0.00 | 37 | 999.6 |
| 20260504174548 | 61 | 290 | 10.0 | 24.0 | 0.00 | 0.00 | 0.00 | 37 | 999.4 |
| 20260504173047 | 60 | 266 | 13.0 | 26.0 | 0.00 | 0.00 | 0.00 | 38 | 999.4 |
| 20260504171546 | 62 | 305 | 11.0 | 19.0 | 0.00 | 0.00 | 0.00 | 39 | 999.2 |
| 20260504081533 | 56 | 186 | 8.0 | 14.0 | 0.00 | 0.00 | 0.00 | 45 | 998.5 |
| 20260504050113 | 57 | 188 | 4.0 | 7.0 | 0.00 | 0.00 | 0.00 | 45 | 1002.0 |
| 20260504044553 | 58 | 173 | 4.0 | 7.0 | 0.00 | 0.00 | 0.00 | 43 | 1002.3 |
| 20260504043106 | 58 | 189 | 5.0 | 8.0 | 0.00 | 0.00 | 0.00 | 42 | 1002.5 |
| 20260504041549 | 59 | 186 | 4.0 | 8.0 | 0.00 | 0.00 | 0.00 | 41 | 1002.8 |
| 20260504040047 | 59 | 199 | 2.0 | 5.0 | 0.00 | 0.00 | 0.00 | 40 | 1003.2 |
| 20260504034544 | 60 | 195 | 2.0 | 5.0 | 0.00 | 0.00 | 0.00 | 38 | 1003.5 |
| 20260504033043 | 60 | 192 | 3.0 | 5.0 | 0.00 | 0.00 | 0.00 | 37 | 1003.7 |
| 20260504031540 | 60 | 199 | 3.0 | 5.0 | 0.00 | 0.00 | 0.00 | 38 | 1003.9 |
| 20260504030043 | 61 | 186 | 2.0 | 4.0 | 0.00 | 0.00 | 0.00 | 37 | 1003.9 |
| 20260504024540 | 62 | 227 | 2.0 | 4.0 | 0.00 | 0.00 | 0.00 | 34 | 1004.0 |
| 20260504023038 | 62 | 233 | 1.0 | 3.0 | 0.00 | 0.00 | 0.00 | 33 | 1004.2 |
| 20260504021537 | 63 | 233 | 1.0 | 3.0 | 0.00 | 0.00 | 0.00 | 32 | 1004.2 |
| 20260504020037 | 64 | 234 | 1.0 | 4.0 | 0.00 | 0.00 | 0.00 | 31 | 1004.2 |
| 20260504014549 | 64 | 232 | 1.0 | 4.0 | 0.00 | 0.00 | 0.00 | 30 | 1004.2 |
| 20260504013040 | 66 | 269 | 1.0 | 5.0 | 0.00 | 0.00 | 0.00 | 28 | 1004.4 |
| 20260504011533 | 67 | 234 | 2.0 | 6.0 | 0.00 | 0.00 | 0.00 | 27 | 1004.4 |
| 20260504010033 | 68 | 268 | 3.0 | 8.0 | 0.00 | 0.00 | 0.00 | 26 | 1004.5 |
| 20260504004532 | 68 | 259 | 4.0 | 10.0 | 0.00 | 0.00 | 0.00 | 26 | 1004.5 |
| 20260504003031 | 70 | 200 | 3.0 | 13.0 | 0.00 | 0.00 | 0.00 | 25 | 1004.5 |
| 20260504001529 | 70 | 279 | 3.0 | 11.0 | 0.00 | 0.00 | 0.00 | 25 | 1004.6 |
| 20260504000040 | 69 | 295 | 5.0 | 11.0 | 0.00 | 0.00 | 0.00 | 24 | 1004.7 |
| 20260503234529 | 71 | 251 | 2.0 | 9.0 | 0.00 | 0.00 | 0.00 | 25 | 1004.6 |
| 20260503233028 | 71 | 265 | 6.0 | 14.0 | 0.00 | 0.00 | 0.00 | 24 | 1004.7 |
| 20260503231526 | 72 | 255 | 4.0 | 10.0 | 0.00 | 0.00 | 0.00 | 23 | 1005.0 |
| 20260503230026 | 71 | 326 | 3.0 | 12.0 | 0.00 | 0.00 | 0.00 | 24 | 1005.1 |
| 20260503224531 | 71 | 248 | 6.0 | 18.0 | 0.00 | 0.00 | 0.00 | 23 | 1005.2 |